Weather in Sokoto

Nigeria     13°01′51″N   5°14′24″E
temp.,
°C
wind,
m/s
gust,
m/s
humid.,
%
clouds,
%
prec.,
mm/h
press.,
hPa
HPBL,
m
2 december, thu
thu201:00+23ene4121833 0.0 1011214
04:00+22ene51319100 0.0 1009230
07:00+21ene513218 0.0 1011246
10:00+28e81218100 0.0 1012633
13:00+34e6613100 0.0 10091421
16:00+35ene441172 0.0 10071983
19:00+28ne44166 0.0 100823
22:00+26ene471895 0.0 101079
3 december, fri
fri301:00+23ene5102056 0.0 1010152
04:00+22ene5122092 0.0 1009203
07:00+20e4122293 0.0 1012193
10:00+29e69158 0.0 1013534
13:00+34ene431195 0.0 10101507
16:00+35ne321061 0.0 10072172
19:00+28ne44147 0.0 100923
22:00+27ne44155 0.0 101132
4 december, sat
sat401:00+24ene44171 0.0 101137
04:00+22ene47180 0.0 101188
07:00+21ene49195 0.0 1012140
10:00+29ene69138 0.0 1013483
13:00+35ene55978 0.0 10101539
16:00+35ne44818 0.0 10081927
19:00+29ne441240 0.0 101030
22:00+27ne441338 0.0 101142
5 december, sun
sun501:00+24ene481331 0.0 101197
04:00+22ene510157 0.0 1010155
07:00+21ene51318100 0.0 1011215
10:00+28e711135 0.0 1013580
13:00+35e66915 0.0 10091369
16:00+36ene44862 0.0 10071890
19:00+29ne45123 0.0 100949
22:00+26ne47135 0.0 101192
6 december, mon
mon601:00+23ne5131513 0.0 1011232
04:00+21ene5131443 0.0 1010234
07:00+20e411165 0.0 1011201
10:00+28e79114 0.0 1013513
13:00+34e55815 0.0 10101157
16:00+36ene4395 0.0 10071570
19:00+28nne44120 0.0 100836
22:00+26ne45140 0.0 101151